Regional Weather Roundup
Issued by NWS

Home | Current Version | Previous Version | Graphics & Text | Print | Product List | Glossary On
Versions: 1 2 3 4 5 6 7 8 9 10 11 12 13 14 15 16 17 18 19 20 21 22 23 24 25 26 27 28 29 30 31 32 33 34 35 36 37 38 39 40 41 42 43 44 45 46 47 48 49 50
000
ASUS43 KLSX 032010
RWRMO

WEATHER SUMMARY FOR MISSOURI
NATIONAL WEATHER SERVICE SPRINGFIELD MO
300 PM CDT TUE MAY 03 2016

NOTE: "FAIR" INDICATES FEW OR NO CLOUDS BELOW 12,000 FEET WITH NO
       SIGNIFICANT WEATHER AND/OR OBSTRUCTIONS TO VISIBILITY.
       CURRENT SKY AND/OR WEATHER CONDITIONS ARE NOT AVAILABLE FOR
       CHILLICOTHE AND FARMINGTON.

MOZ001>031-035>038-043-044-053-054-032100-
...NORTHERN AND WESTERN MISSOURI...

CITY           SKY/WX    TMP DP  RH WIND       PRES   REMARKS
KANSAS CTY INT MOSUNNY   66  39  37 SW9       30.02F
KANSAS C DTWN  SUNNY     67  40  37 VRB6      30.01F
LEE`S SUMMIT   MOSUNNY   67  41  38 NW5       30.03F
ST JOSEPH      MOSUNNY   69  41  36 W14       30.01F
CHILLICOTHE      N/A     67  44  43 NW8       30.00F
KIRKSVILLE     PTSUNNY   65  39  38 W10       29.98F

$$
MOZ066>068-077>081-088>096-101>105-032100-
...SOUTHWEST MISSOURI...

CITY           SKY/WX    TMP DP  RH WIND       PRES   REMARKS
SPRINGFIELD    PTSUNNY   64  40  41 N10       30.04S
JOPLIN         MOSUNNY   67  44  43 N6        30.06F
BRANSON        PTSUNNY   64  37  36 NW8G16    30.05F

$$
MOZ032>034-039>042-045>050-055>058-069>072-032100-
...CENTRAL MISSOURI...

CITY           SKY/WX    TMP DP  RH WIND       PRES   REMARKS
COLUMBIA       PTSUNNY   63  43  48 NW8       30.01F
JEFFERSON CITY PTSUNNY   65  42  43 W10       30.01F
ROLLA          PTSUNNY   60  44  55 NW9       29.99F
SEDALIA        MOSUNNY   65  42  43 NW8       30.03F
WHITEMAN AFB   PTSUNNY   67  43  42 NW6       30.01F
WARRENSBURG    MOSUNNY   68  37  32 W6        30.02F
OSAGE BEACH    PTSUNNY   64  37  36 NW6       30.02F

$$
MOZ051-052-059>065-032100-
...EAST CENTRAL MISSOURI...

CITY           SKY/WX    TMP DP  RH WIND       PRES   REMARKS
ST LOUIS INTL  PTSUNNY   64  41  42 NW12      29.99F
SPIRIT OF STL  CLOUDY    63  43  48 VRB6      29.99F
ST CHARLES     CLOUDY    62  44  51 W8        29.99F

$$
MOZ072>076-082>087-097>100-106>115-032100-
...SOUTH CENTRAL AND SOUTHEAST MISSOURI...

CITY           SKY/WX    TMP DP  RH WIND       PRES   REMARKS
CAPE GIRARDEAU CLOUDY    62  46  55 NW7       29.99F
FARMINGTON     PTSUNNY   61  45  55 W7        29.99F
POPLAR BLUFF   MOSUNNY   66  47  50 N7        29.99F
WEST PLAINS    MOSUNNY   66  41  40 W8        30.02F

$$




USA.gov is the U.S. government's official web portal to all federal, state and local government web resources and services.